| time (UTC) | temp F | wind direction | speed MPH | gust MPH | rain 1hr in | rain 24hr in | rain mn in | humidity % | barometer mb |
| 20260504000042 | 44 | 317 | 0.0 | 0.0 | 0.00 | 0.00 | 0.00 | 54 | 1008.5 |
| 20260503234604 | 45 | 196 | 0.0 | 0.0 | 0.00 | 0.00 | 0.00 | 50 | 1008.3 |
| 20260503233057 | 45 | 250 | 0.0 | 0.0 | 0.00 | 0.00 | 0.00 | 48 | 1008.2 |
| 20260503231538 | 46 | 323 | 0.0 | 0.0 | 0.00 | 0.00 | 0.00 | 45 | 1008.1 |
| 20260503230004 | 46 | 225 | 0.0 | 0.0 | 0.00 | 0.00 | 0.00 | 49 | 1008.1 |
| 20260503224504 | 47 | 277 | 0.0 | 0.0 | 0.00 | 0.00 | 0.00 | 46 | 1008.0 |
| 20260503223054 | 47 | 230 | 0.0 | 0.0 | 0.00 | 0.00 | 0.00 | 46 | 1008.0 |
| 20260503221529 | 47 | 288 | 0.0 | 0.0 | 0.00 | 0.00 | 0.00 | 48 | 1007.8 |
| 20260503220028 | 47 | 319 | 0.0 | 0.0 | 0.00 | 0.00 | 0.00 | 47 | 1008.0 |
| 20260503214527 | 46 | 215 | 0.0 | 0.0 | 0.00 | 0.00 | 0.00 | 47 | 1007.9 |
| 20260503213055 | 46 | 232 | 0.0 | 0.0 | 0.00 | 0.00 | 0.00 | 48 | 1007.9 |
| 20260503211608 | 45 | 306 | 0.0 | 0.0 | 0.00 | 0.00 | 0.00 | 49 | 1008.0 |
| 20260503210036 | 46 | 5 | 0.0 | 0.0 | 0.00 | 0.00 | 0.00 | 49 | 1007.9 |
| 20260503204610 | 45 | 288 | 0.0 | 0.0 | 0.00 | 0.00 | 0.00 | 51 | 1007.9 |
| 20260503203036 | 44 | 263 | 0.0 | 0.0 | 0.00 | 0.00 | 0.00 | 52 | 1008.0 |
| 20260503201531 | 45 | 286 | 0.0 | 0.0 | 0.00 | 0.00 | 0.00 | 51 | 1008.2 |
| 20260503200105 | 45 | 348 | 0.0 | 0.0 | 0.00 | 0.00 | 0.00 | 50 | 1008.2 |
| 20260503194549 | 45 | 300 | 0.0 | 0.0 | 0.00 | 0.00 | 0.00 | 51 | 1008.4 |
| 20260503193033 | 44 | 209 | 0.0 | 0.0 | 0.00 | 0.00 | 0.00 | 50 | 1008.5 |
| 20260503191537 | 44 | 272 | 0.0 | 0.0 | 0.00 | 0.00 | 0.00 | 50 | 1008.5 |
| 20260503190016 | 44 | 327 | 0.0 | 0.0 | 0.00 | 0.00 | 0.00 | 50 | 1008.5 |
| 20260503184609 | 44 | 282 | 0.0 | 0.0 | 0.00 | 0.00 | 0.00 | 49 | 1008.6 |
| 20260503183020 | 43 | 237 | 0.0 | 0.0 | 0.00 | 0.00 | 0.00 | 50 | 1008.4 |
| 20260503181616 | 43 | 236 | 0.0 | 0.0 | 0.00 | 0.00 | 0.00 | 51 | 1008.6 |
| 20260503180016 | 43 | 302 | 0.0 | 0.0 | 0.00 | 0.00 | 0.00 | 54 | 1008.4 |
| 20260503174501 | 42 | 275 | 0.0 | 0.0 | 0.00 | 0.00 | 0.00 | 54 | 1008.5 |
| 20260503173036 | 43 | 308 | 0.0 | 0.0 | 0.00 | 0.00 | 0.00 | 54 | 1008.5 |
| 20260503171639 | 44 | 318 | 0.0 | 0.0 | 0.00 | 0.00 | 0.00 | 52 | 1008.4 |
| 20260503150133 | 42 | 275 | 0.0 | 0.0 | 0.00 | 0.00 | 0.00 | 59 | 1008.8 |
| 20260503081538 | 36 | 295 | 0.0 | 0.0 | 0.00 | 0.01 | 0.00 | 79 | 1009.0 |
| 20260503071525 | 34 | 13 | 0.0 | 0.0 | 0.00 | 0.04 | 0.00 | 83 | 1009.7 |
| 20260503070114 | 34 | 67 | 0.0 | 0.0 | 0.00 | 0.04 | 0.00 | 86 | 1009.7 |
| 20260503054558 | 33 | 200 | 0.0 | 0.0 | 0.00 | 0.05 | 0.00 | 84 | 1010.2 |
| 20260503053107 | 34 | 225 | 0.0 | 0.0 | 0.00 | 0.05 | 0.00 | 84 | 1010.4 |
| 20260503051554 | 33 | 221 | 0.0 | 0.0 | 0.00 | 0.05 | 0.00 | 86 | 1010.5 |
| 20260503050017 | 33 | 221 | 0.0 | 0.0 | 0.00 | 0.06 | 0.00 | 86 | 1010.9 |
| 20260503044604 | 33 | 221 | 0.0 | 0.0 | 0.00 | 0.06 | 0.00 | 85 | 1011.0 |
| 20260503043011 | 32 | 221 | 0.0 | 0.0 | 0.00 | 0.06 | 0.00 | 85 | 1011.0 |
| 20260503041559 | 32 | 221 | 0.0 | 0.0 | 0.00 | 0.06 | 0.00 | 84 | 1011.3 |
| 20260503040106 | 32 | 221 | 0.0 | 0.0 | 0.00 | 0.06 | 0.00 | 83 | 1011.3 |
| 20260503034524 | 33 | 221 | 0.0 | 0.0 | 0.00 | 0.06 | 0.06 | 82 | 1011.5 |
| 20260503033002 | 33 | 221 | 0.0 | 0.0 | 0.00 | 0.06 | 0.06 | 82 | 1011.7 |
| 20260503031541 | 33 | 221 | 0.0 | 0.0 | 0.00 | 0.06 | 0.06 | 81 | 1011.5 |
| 20260503030023 | 34 | 221 | 0.0 | 0.0 | 0.00 | 0.06 | 0.06 | 79 | 1011.5 |
| 20260503024509 | 34 | 221 | 0.0 | 0.0 | 0.00 | 0.06 | 0.06 | 77 | 1011.5 |
| 20260503023012 | 36 | 221 | 0.0 | 0.0 | 0.00 | 0.06 | 0.06 | 76 | 1011.5 |
| 20260503021603 | 36 | 221 | 0.0 | 0.0 | 0.00 | 0.06 | 0.06 | 75 | 1011.5 |
| 20260503020035 | 37 | 221 | 0.0 | 0.0 | 0.00 | 0.06 | 0.06 | 73 | 1011.7 |
| 20260503014508 | 37 | 221 | 0.0 | 0.0 | 0.00 | 0.06 | 0.06 | 73 | 1011.6 |
| 20260503013118 | 38 | 221 | 0.0 | 0.0 | 0.00 | 0.06 | 0.06 | 71 | 1011.5 |
| 20260503011539 | 39 | 221 | 0.0 | 0.0 | 0.00 | 0.06 | 0.06 | 69 | 1011.5 |
| 20260503010027 | 39 | 221 | 0.0 | 0.0 | 0.00 | 0.06 | 0.06 | 67 | 1011.5 |
| 20260503004606 | 40 | 221 | 0.0 | 0.0 | 0.00 | 0.06 | 0.06 | 66 | 1011.2 |
| 20260503003045 | 41 | 221 | 0.0 | 0.0 | 0.00 | 0.06 | 0.06 | 61 | 1011.3 |
| 20260503001517 | 42 | 236 | 0.0 | 0.0 | 0.00 | 0.06 | 0.06 | 60 | 1011.2 |